Home > Weather > Boston > Past weeks

Flag for USA Past Weather in Boston, Massachusetts, USA — Yesterday and Last 2 Weeks

Now
68 °F

Overcast.


Feels Like: 68 °F
Forecast: 67 / 80 °F
Wind: 6 mph from Southwest

Location: Logan International Airport

Current Time: Jun 29, 2016 at 7:10:35 AM

Latest Report: Jun 29, 2016 at 5:54 AM


Visibility: 10 mi

Pressure: 29.88 "Hg

Humidity: 93%

Dew Point: 66 °F

Location of BostonLocation

Past Weather in Boston — Graph

°F

Boston Temperature Yesterday

Maximum temperature yesterday: 79 °F (at 1:54 PM)
Minimum temperature yesterday: 69 °F (at 2:54 AM)
Average temperature yesterday: 73 °F

High & Low Weather Summary for the Past Weeks

 TemperatureHumidityPressure
High86 °F (Jun 21, 1:54 PM)97% (Jun 29, 4:54 AM)30.33 "Hg (Jun 29, 4:54 AM)
Low56 °F (Jun 14, 5:54 AM)21% (Jun 21, 3:54 PM)29.69 "Hg (Jun 21, 4:54 PM)
Average70 °F57%29.99 "Hg
* Reported Jun 14 5:54 AM — Jun 29 5:54 AM, Boston, Weather by CustomWeather, © 2016

Note: Actual official high and low records may vary slightly from our data, if they occured in-between our weather recording intervals... More about our weather records

Advertising

Boston Weather History for the Previous 24 Hours

Scroll right to see more
 ConditionsComfort  
Time TempWeatherWind HumidityBarometerVisibility
5:54 AM
Wed, Jun 29
68 °FOvercast.6 mph93%29.88 "Hg10 mi
4:54 AM67 °FLight rain. Mostly cloudy.7 mph97%29.87 "Hg10 mi
3:54 AM68 °FLight rain. Mostly cloudy.9 mph93%29.88 "Hg10 mi
2:54 AM69 °FLight rain. Passing clouds.9 mph90%29.88 "Hg8 mi
1:54 AM70 °FOvercast.10 mph87%29.89 "Hg10 mi
12:54 AM70 °FPassing clouds.7 mph87%29.90 "Hg10 mi
11:54 PM
Tue, Jun 28
71 °FPartly cloudy.10 mph84%29.91 "Hg10 mi
10:54 PM71 °FPartly cloudy.8 mph81%29.93 "Hg10 mi
9:54 PM72 °FOvercast.9 mph78%29.93 "Hg10 mi
8:54 PM73 °FMostly cloudy.10 mph76%29.93 "Hg10 mi
6:54 PM75 °FBroken clouds.14 mph69%29.93 "Hg10 mi
5:54 PM76 °FCloudy.16 mph67%29.92 "Hg10 mi
4:54 PM78 °FMore clouds than sun.13 mph62%29.93 "Hg10 mi
3:54 PM78 °FCloudy.13 mph62%29.93 "Hg10 mi
2:54 PM78 °FPartly sunny.15 mph60%29.94 "Hg10 mi
1:54 PM79 °FMore clouds than sun.13 mph58%29.96 "Hg10 mi
12:54 PM78 °FMore clouds than sun.13 mph60%29.97 "Hg10 mi
11:54 AM77 °FCloudy.12 mph66%29.98 "Hg10 mi
10:54 AM74 °FBroken clouds.7 mph76%29.99 "Hg10 mi
9:54 AM71 °FMostly cloudy.6 mph87%30.00 "Hg10 mi
8:54 AM69 °FOvercast.7 mph90%30.01 "Hg10 mi
7:54 AM69 °FLight rain. Overcast.8 mph84%30.01 "Hg10 mi
7:04 AM70 °FMore clouds than sun.9 mph78%30.01 "Hg10 mi
Weather by CustomWeather, © 2016

See weather overviewHow to use our weather pages